Whidbey Island, WA

8:51 AM PST on December 13, 2017 (GMT -0800)
Whidbey Island Naval Air Station

Weather History for KNUW - November, 2013

Change the Weather History Date:

Friday, November 1, 2013

  Actual Average Record
Temperature  
Mean Temperature 53 °F -  
Max Temperature 55 °F 51 °F 64 °F (2008)
Min Temperature 51 °F 38 °F 28 °F (2002)
Degree Days  
Heating Degree Days 12    
Growing Degree Days 3 (Base 50)    
Moisture  
Dew Point 49 °F    
Average Humidity 87    
Maximum Humidity 96    
Minimum Humidity 77    
Precipitation  
Precipitation 0.04 in - - ()
Sea Level Pressure  
Sea Level Pressure 30.15 in    
Wind  
Wind Speed 5 mph (SE)    
Max Wind Speed 12 mph    
Max Gust Speed -    
Visibility 9 miles    
Events Rain    
Averages and records for this station are not official NWS values.
T = Trace of Precipitation, MM = Missing Value Source: NWS Daily Summary

Daily Weather History Graph

Daily Weather History Graph

Search for Another Location

Airport or City:

Trip Planner

Search our weather history database for the weather conditions in past years. The results will help you decide how hot, cold, wet, or windy it might be!

Date:

Astronomy

Nov. 01, 2013 Rise Set
Actual Time 7:56 AM PDT 5:50 PM PDT
Civil Twilight 7:24 AM PDT 6:23 PM PDT
Nautical Twilight 6:47 AM PDT 7:00 PM PDT
Astronomical Twilight 6:10 AM PDT 7:36 PM PDT
Moon 5:47 AM PDT (11/1) 4:52 PM PDT (11/1)
Length of Visible Light 10h 59m
Length of Day
9h 53m
Waning Crescent, 4% of the Moon is Illuminated
Nov 1
Waning Crescent
Nov 3
New
Nov 9
First Quarter
Nov 17
Full
Nov 25
Last Quarter

Hourly Weather History & Observations

Time (PDT) Temp. Dew Point Humidity Pressure Visibility Wind Dir Wind Speed Gust Speed Precip Events Conditions
12:56 AM 51.1 °F 48.9 °F 92% 30.29 in 7.0 mi SE 4.6 mph - N/A   Overcast
1:56 AM 51.1 °F 48.9 °F 92% 30.29 in 8.0 mi ESE 3.5 mph - N/A   Overcast
2:56 AM 51.1 °F 48.9 °F 92% 30.28 in 7.0 mi SE 3.5 mph - N/A   Overcast
3:56 AM 52.0 °F 50.0 °F 93% 30.28 in 7.0 mi Calm Calm - N/A   Overcast
4:56 AM 51.1 °F 48.9 °F 92% 30.28 in 6.0 mi SSE 4.6 mph - N/A   Overcast
5:56 AM 51.1 °F 50.0 °F 96% 30.28 in 8.0 mi SSE 4.6 mph - N/A   Overcast
6:56 AM 51.1 °F 48.9 °F 92% 30.27 in 8.0 mi ESE 4.6 mph - N/A   Overcast
7:06 AM 51.8 °F 48.2 °F 88% 30.25 in 8.0 mi ESE 5.8 mph - N/A   Overcast
7:56 AM 51.1 °F 48.9 °F 92% 30.25 in 10.0 mi SE 5.8 mph - N/A   Overcast
8:22 AM 51.8 °F 48.2 °F 88% 30.24 in 8.0 mi East 6.9 mph - N/A   Overcast
8:56 AM 52.0 °F 48.9 °F 89% 30.25 in 9.0 mi ESE 6.9 mph - N/A   Overcast
9:10 AM 51.8 °F 48.2 °F 88% 30.24 in 9.0 mi ESE 10.4 mph - 0.00 in Rain Light Rain
9:18 AM 51.8 °F 48.2 °F 88% 30.24 in 10.0 mi ESE 9.2 mph - 0.00 in   Overcast
9:56 AM 53.1 °F 48.9 °F 86% 30.25 in 10.0 mi ESE 8.1 mph - 0.00 in   Overcast
10:14 AM 53.6 °F 48.2 °F 82% 30.23 in 10.0 mi ESE 9.2 mph - N/A   Overcast
10:29 AM 53.6 °F 48.2 °F 82% 30.23 in 10.0 mi ESE 6.9 mph - N/A   Overcast
10:56 AM 54.0 °F 48.9 °F 83% 30.23 in 10.0 mi ESE 9.2 mph - N/A   Overcast
11:38 AM 53.6 °F 48.2 °F 82% 30.22 in 10.0 mi SE 10.4 mph - N/A   Overcast
11:56 AM 55.0 °F 48.9 °F 80% 30.22 in 10.0 mi SE 11.5 mph - N/A   Overcast
12:56 PM 55.0 °F 48.0 °F 77% 30.21 in 10.0 mi SSE 9.2 mph - N/A   Overcast
1:56 PM 55.0 °F 48.9 °F 80% 30.18 in 10.0 mi South 5.8 mph - N/A   Overcast
2:56 PM 52.0 °F 48.0 °F 86% 30.14 in 10.0 mi WSW 4.6 mph - N/A   Overcast
3:56 PM 51.1 °F 48.0 °F 89% 30.13 in 10.0 mi North 4.6 mph - N/A   Overcast
4:28 PM 53.6 °F 48.2 °F 82% 30.09 in 10.0 mi Variable 4.6 mph - N/A   Overcast
4:56 PM 53.1 °F 48.0 °F 83% 30.08 in 10.0 mi Variable 4.6 mph - N/A   Overcast
5:56 PM 51.1 °F 48.0 °F 89% 30.04 in 10.0 mi Calm Calm - N/A   Overcast
6:56 PM 51.1 °F 48.0 °F 89% 29.99 in 10.0 mi Calm Calm - N/A   Overcast
7:56 PM 52.0 °F 48.9 °F 89% 29.94 in 10.0 mi East 8.1 mph - N/A   Overcast
8:56 PM 52.0 °F 48.0 °F 86% 29.90 in 10.0 mi NE 3.5 mph - N/A   Overcast
9:26 PM 53.6 °F 48.2 °F 82% 29.88 in 10.0 mi ESE 3.5 mph - 0.00 in Rain Light Rain
9:56 PM 52.0 °F 48.9 °F 89% 29.89 in 10.0 mi Variable 4.6 mph - 0.00 in Rain Light Rain
10:56 PM 51.1 °F 48.9 °F 92% 29.86 in 10.0 mi East 10.4 mph - 0.00 in Rain Light Rain
11:56 PM 51.1 °F 48.9 °F 92% 29.81 in 9.0 mi SE 6.9 mph - 0.04 in Rain Light Rain